カタログに戻る

ONEWEB-0683

運用中通信PO
NORAD 56719·PAYLOAD·🇬🇧 United Kingdom

打ち上げ May 20, 2023 から Vandenberg Space Force Base

Loading…

次のパス (今後24時間)

TLE

最新Source: CelesTrak SupGP

元期: Sep 14, 2026, 16:08 UTC

1 56719C 23068K   26257.67272407 -.00000139  00000+0 -36845-3 0  2574
2 56719  87.8986 241.3571 0001829  90.2593  12.9624 13.15545822    18

AllMySatでONEWEB-0683をリアルタイム追跡

Download on the App Store